Regional Weather Roundup
Issued by NWS

Home | Current Version | Previous Version | Text Only | Print | Product List | Glossary Off
Versions: 1 2 3 4 5 6 7 8 9 10 11 12 13 14 15 16 17 18 19 20 21 22 23 24 25 26 27 28 29 30 31 32 33 34 35 36 37 38 39 40 41 42 43 44 45 46 47 48 49 50

000
ASUS43 KDTX 042101
RWRMI
MICHIGAN HOURLY REGIONAL WEATHER ROUNDUP
NATIONAL WEATHER SERVICE DETROIT/PONTIAC MI
500 PM EDT WED MAY 04 2016

NOTE: "FAIR" INDICATES FEW OR NO CLOUDS BELOW 12,000 FEET WITH NO
SIGNIFICANT WEATHER AND/OR OBSTRUCTION TO VISIBILITY.

MIZ047>049-052>055-059>063-066>070-074>076-081>083-042200-
SOUTHEAST LOWER MICHIGAN

CITY           SKY/WX    TMP DP  RH WIND       PRES   REMARKS
ADRIAN         CLOUDY    48  41  76 NW10G20   29.61R
ALMA           RAIN      46  44  95 N15G24    29.62R
ANN ARBOR      CLOUDY    50  45  83 W9        29.58R
BAD AXE        CLOUDY    60  41  48 SE9       29.62R
CARO           DRIZZLE   53  49  87 NW8       29.62R
DETROIT CITY   LGT RAIN  52  49  89 SE6       29.61R FOG
DETROIT        LGT RAIN  52  48  86 S8        29.60R
FLINT          RAIN      53  45  74 SE9       29.59S
GROSSE ILE     CLOUDY    54  48  82 SE10      29.58R
HILLSDALE      CLOUDY    45  40  83 NW12G21   29.61R HAZE
HOWELL         RAIN      50  49  94 SE9       29.57R

CITY           SKY/WX    TMP DP  RH WIND       PRES   REMARKS
JACKSON        CLOUDY    44  41  89 W10G21    29.59R FOG
LAMBERTVILLE   CLOUDY    53  44  69 W15       29.61R
LANSING        CLOUDY    49  46  90 N6        29.56S
LAPEER         CLOUDY    58  40  52 SE14G22   29.60R
MASON          CLOUDY    48  44  86 W8        29.56R
MONROE         CLOUDY    51  47  84 W8        29.59R
PONTIAC        LGT RAIN  50  47  89 E7        29.58R
PORT HOPE        N/A     58  44  60 SE9       29.62R
PORT HURON     CLOUDY    59  41  51 S7        29.61R
TRI CITIES     LGT RAIN  51  48  89 N8        29.64R FOG
MIDLAND        RAIN      48  47  96 N8        29.64R
TROY           LGT RAIN  51  49  92 SE3       29.62R
SAGINAW HB     LGT RAIN  50  46  87 N10       29.62R
$$
MIZ043>046-050>051-056>058-064>065-071>073-077>080-042200-
SOUTHWEST LOWER MICHIGAN

CITY           SKY/WX    TMP DP  RH WIND       PRES   REMARKS
BATTLE CREEK   LGT RAIN  43  39  86 NW16      29.64R
BENTON HARBOR  RAIN      40  35  83 N8G33     29.75R WCI  34
BIG RAPIDS     RAIN      41  37  87 N12G17    29.69R
COLDWATER      CLOUDY    44  40  87 W16G25    29.63S
FREMONT        LGT RAIN  40  39  96 N17G23    29.71R WCI  32
HOLLAND        LGT RAIN N/A N/A N/A NW14G23   29.70R
GRAND RAPIDS   LGT RAIN  43  40  89 NW16G25   29.65R
IONIA          DRIZZLE   44  43  95 N14       29.60R
KALAMAZOO      LGT RAIN  42  37  82 NW16G25   29.67R
LUDINGTON      CLOUDY    42  35  74 N18G29    29.77R
MARSHALL       CLOUDY    43  40  87 W14G31    29.61S FOG
MOUNT PLEASANT   N/A     46  44  93 N12G21      N/A
MUSKEGON       LGT RAIN  43  37  79 N20       29.72R
$$
MIZ016>042-042200-
NORTHERN LOWER MICHIGAN

CITY           SKY/WX    TMP DP  RH WIND       PRES   REMARKS
ALPENA         LGT RAIN  47  44  90 N16       29.72R
BEAVER ISLAND  MOSUNNY   48  34  58 N16G25    29.80R
BELLAIRE       CLOUDY    47  37  68 N8G20     29.76R
CADILLAC       LGT RAIN  41  38  91 N13G21    29.71R
CHARLEVOIX     CLOUDY    44  37  78 N12G17    29.81R
FRANKFORT      CLOUDY    44  36  74 N12G24    29.80R
GAYLORD        LGT RAIN  44  42  93 VRB7      29.73R
HARBOR SPRINGS RAIN      48  40  74 N9G16     29.76R
HOUGHTON LAKE  CLOUDY    45  41  86 N14G25    29.69R
MANISTEE       CLOUDY    45  34  65 N18G26    29.78R
OSCODA         CLOUDY    54  43  66 N10       29.67R
PELLSTON       LGT RAIN  48  41  76 NE12      29.78R
ROGERS CITY    CLOUDY    42  40  93 NW12      29.75R
TRAVERSE CITY  CLOUDY    45  36  70 N13G20    29.76R
$$
MIZ007>008-015-042200-
EASTERN UPPER MICHIGAN

CITY           SKY/WX    TMP DP  RH WIND       PRES   REMARKS
KINROSS          N/A     45  36  70 N16G26    29.79R
MACKINAC ISLAN LGT RAIN  47  37  69 N15       29.77S
NEWBERRY       PTSUNNY   45  32  61 N15G26    29.82S
S. S. MARIE    LGT RAIN  46  39  76 NW9       29.79R
MUNISING         N/A     39  31  72 NW22G30   29.90R WCI  29
$$
MIZ004>006-011>014-085-042200-
CENTRAL UPPER MICHIGAN

CITY           SKY/WX    TMP DP  RH WIND       PRES   REMARKS
MANISTIQUE     CLOUDY    46  31  57 N22G30    29.83R
ESCANABA       CLOUDY    45  30  57 N17G32    29.88R
MENOMINEE      CLOUDY    50  34  53 N21       29.86R
SAWYER-GWINN   CLOUDY    39  30  70 N24G31    29.93  WCI  28
$$
MIZ001>003-009>011-084-042200-
WESTERN UPPER MICHIGAN

CITY           SKY/WX    TMP DP  RH WIND       PRES   REMARKS
IRON MOUNTAIN  CLOUDY    45  31  58 NW23G31   29.89R
HOUGHTON       CLOUDY    44  30  57 N18       29.95S
COPPER HARBOR    N/A     42  35  76 N12       29.95S
IRONWOOD         N/A     48  30  49 NE8       29.94F
$$

ABBREVIATIONS USED IN REMARKS
   TC - TEMPERATURE IN CELSIUS
  WCI - WIND CHILL INDEX
   HX - HEAT INDEX
  VSB - VISIBILITY





USA.gov is the U.S. government's official web portal to all federal, state and local government web resources and services.